Location: New Canada
(47.1017°N, 68.5042°W)
Time: 17:29:26
(UTC+00:00)

RS-44 - Pass Details

Date: 18 April 2024
Orbit: 1174 x 1511 km, 82.5° (Epoch: 20 May)

Event Time Altitude Azimuth Distance (km) Brightness Sun altitude
Rises 01:43:19 0° 210° (SSW) 4,642 ? -20.7°
Reaches altitude 10° 01:46:25 10° 216° (SW) 3,658 ? -21.1°
Maximum altitude 01:54:53 48° 288° (WNW) 1,869 ? -22.1°
Drops below altitude 10° 02:03:03 10° 1° (N) 3,522 ? -23.0°
Sets 02:06:00 0° 8° (N) 4,457 ? -23.3°
